Погода в Инсаре

Россия / Республика Мордовия     53°51′59″N   44°22′20″E
темп.,
°C
ветер,
м/с
пор.,
м/с
влажн.,
%
обл.,
%
осадки,
мм/ч
давл.,
гПа
погр.,
м
29 мая, вс
вс2900:00+7юз410900 0.0 1010181
03:00+6юз4109311 0.0 1012172
06:00+9юз511885 0.0 1013347
09:00+13зюз6968100 0.0 1014873
12:00+15юз6964100 0.0 10151458
15:00+14юз6976100 0.3 10151093
18:00+11юз5983100 0.2 1016497
21:00+9ююз389696 0.3 1017157
30 мая, пн
пн3000:00+8зюз379688 0.0 1018137
03:00+7зюз33944 0.0 101950
06:00+9зюз35900 0.0 1020172
09:00+14з35730 0.0 1021779
12:00+17з33598 0.0 10211548
15:00+18зсз225317 0.1 10211648
18:00+18зюз116467 0.0 10221058
21:00+12юв117382 0.0 102210
31 мая, вт
вт3100:00+11вюв227675 0.0 102310
03:00+11юв227885 0.0 102322
06:00+12вюв378364 0.0 1023193
09:00+13юв2684100 0.0 1024201
12:00+19ююв346238 0.0 10231097
15:00+21юв455719 0.0 10221380
18:00+19ююв36735 0.0 1021270
21:00+14юв358487 0.0 102166
1 июня, ср
ср100:00+13юв4118496 0.0 1021192
03:00+11юв4118314 0.0 1022203
06:00+13юв5127954 0.0 1022326
09:00+16ююв61276100 0.0 1021483
12:00+20ю686489 0.1 1021883
15:00+22ю576455 0.3 10201156
18:00+19ююв3379100 0.0 102050
21:00+17ююв3389100 0.4 102137
2 июня, чт
чт200:00+16ююв3894100 1.1 1021160
03:00+15ю3992100 1.4 1021186
06:00+16ююв41088100 0.1 1020248
09:00+20ю6107020 0.1 1020502
12:00+23ю686290 0.0 1020880
15:00+25ю586681 0.0 10191179
18:00+23ю510755 0.0 1018434
21:00+19ююв4989100 0.0 1019153